Time,TemperatureF,DewpointF,PressureIn,WindDirection,WindDirectionDegrees,WindSpeedMPH,WindSpeedGustMPH,Humidity,HourlyPrecipIn,Conditions,Clouds,dailyrainin,SoftwareType,DateUTC
2013-02-17 00:02:00,19.0,17.0,29.99,WNW,298,5.0,12.0,92,0.00,,,0.00,,2013-02-17 05:02:00,
2013-02-17 00:12:00,19.0,17.0,29.99,NW,310,5.0,10.0,92,0.00,,,0.00,,2013-02-17 05:12:00,
2013-02-17 00:22:00,19.0,17.0,29.99,NW,310,5.0,10.0,92,0.00,,,0.00,,2013-02-17 05:22:00,
2013-02-17 00:33:00,19.0,17.0,29.98,West,269,7.0,10.0,92,0.00,,,0.00,,2013-02-17 05:33:00,
2013-02-17 00:42:00,19.0,17.0,29.98,West,269,7.0,10.0,92,0.00,,,0.00,,2013-02-17 05:42:00,
2013-02-17 00:52:00,19.0,17.0,29.98,WNW,292,5.0,12.0,92,0.00,,,0.00,,2013-02-17 05:52:00,
2013-02-17 01:02:00,19.0,17.0,29.99,WNW,288,5.0,12.0,92,0.00,,,0.00,,2013-02-17 06:02:00,
2013-02-17 01:11:00,19.0,17.0,29.99,WNW,288,5.0,12.0,92,0.00,,,0.00,,2013-02-17 06:11:00,
2013-02-17 01:21:00,19.0,17.0,29.98,NW,319,8.0,13.0,92,0.00,,,0.00,,2013-02-17 06:21:00,
2013-02-17 01:32:00,19.0,17.0,29.99,WSW,250,9.0,14.0,92,0.00,,,0.00,,2013-02-17 06:32:00,
2013-02-17 01:42:00,19.0,17.0,29.99,WSW,250,9.0,14.0,92,0.00,,,0.00,,2013-02-17 06:42:00,
2013-02-17 01:51:00,19.0,17.0,29.99,WNW,296,9.0,13.0,91,0.00,,,0.00,,2013-02-17 06:51:00,
2013-02-17 02:01:00,19.0,17.0,29.99,NW,320,6.0,16.0,91,0.00,,,0.00,,2013-02-17 07:01:00,
2013-02-17 02:11:00,19.0,17.0,29.99,NW,320,6.0,16.0,91,0.00,,,0.00,,2013-02-17 07:11:00,
2013-02-17 02:21:00,19.0,17.0,29.99,West,274,8.0,13.0,92,0.00,,,0.00,,2013-02-17 07:21:00,
2013-02-17 02:32:00,19.0,17.0,30.00,WNW,300,7.0,14.0,93,0.00,,,0.00,,2013-02-17 07:32:00,
2013-02-17 02:42:00,19.0,17.0,30.00,WNW,300,7.0,14.0,93,0.00,,,0.00,,2013-02-17 07:42:00,
2013-02-17 02:51:00,19.0,17.0,30.00,NW,309,7.0,13.0,93,0.00,,,0.00,,2013-02-17 07:51:00,
2013-02-17 03:01:00,18.0,16.0,30.00,NW,321,8.0,16.0,93,0.00,,,0.00,,2013-02-17 08:01:00,
2013-02-17 03:11:00,18.0,16.0,30.00,NW,321,8.0,16.0,93,0.00,,,0.00,,2013-02-17 08:11:00,
2013-02-17 03:21:00,18.0,16.0,30.01,NW,319,10.0,15.0,93,0.00,,,0.00,,2013-02-17 08:21:00,
2013-02-17 03:32:00,18.0,16.0,30.01,WNW,292,7.0,14.0,93,0.00,,,0.00,,2013-02-17 08:32:00,
2013-02-17 03:42:00,18.0,16.0,30.01,WNW,292,7.0,14.0,93,0.00,,,0.00,,2013-02-17 08:42:00,
2013-02-17 03:52:00,18.0,16.0,30.01,WNW,299,7.0,16.0,93,0.00,,,0.00,,2013-02-17 08:52:00,
2013-02-17 04:02:00,18.0,16.0,30.01,WNW,297,9.0,16.0,93,0.00,,,0.00,,2013-02-17 09:02:00,
2013-02-17 04:11:00,18.0,16.0,30.01,WNW,297,9.0,16.0,93,0.00,,,0.00,,2013-02-17 09:11:00,
2013-02-17 04:21:00,18.0,16.0,30.02,WNW,284,9.0,15.0,93,0.00,,,0.00,,2013-02-17 09:21:00,
2013-02-17 04:32:00,18.0,16.0,30.02,West,278,8.0,12.0,92,0.00,,,0.00,,2013-02-17 09:32:00,
2013-02-17 04:42:00,18.0,16.0,30.02,West,278,8.0,12.0,92,0.00,,,0.00,,2013-02-17 09:42:00,
2013-02-17 04:51:00,18.0,16.0,30.03,WNW,288,6.0,10.0,92,0.00,,,0.00,,2013-02-17 09:51:00,
2013-02-17 05:01:00,18.0,16.0,30.03,NW,322,9.0,15.0,92,0.00,,,0.00,,2013-02-17 10:01:00,
2013-02-17 05:11:00,18.0,16.0,30.03,NW,322,9.0,15.0,92,0.00,,,0.00,,2013-02-17 10:11:00,
2013-02-17 05:21:00,18.0,16.0,30.03,WNW,303,4.0,11.0,92,0.00,,,0.00,,2013-02-17 10:21:00,
2013-02-17 05:32:00,18.0,16.0,30.04,WNW,296,5.0,11.0,92,0.00,,,0.00,,2013-02-17 10:32:00,
2013-02-17 05:42:00,18.0,16.0,30.04,WNW,296,5.0,11.0,92,0.00,,,0.00,,2013-02-17 10:42:00,
2013-02-17 05:52:00,18.0,16.0,30.04,North,350,6.0,11.0,92,0.00,,,0.00,,2013-02-17 10:52:00,
2013-02-17 06:01:00,18.0,16.0,30.04,NW,315,3.0,10.0,92,0.00,,,0.00,,2013-02-17 11:01:00,
2013-02-17 06:11:00,18.0,16.0,30.04,NW,315,3.0,10.0,92,0.00,,,0.00,,2013-02-17 11:11:00,
2013-02-17 06:22:00,18.0,16.0,30.04,NW,314,4.0,10.0,92,0.00,,,0.00,,2013-02-17 11:22:00,
2013-02-17 06:32:00,18.0,16.0,30.05,NW,318,5.0,9.0,92,0.00,,,0.00,,2013-02-17 11:32:00,
2013-02-17 06:42:00,18.0,16.0,30.05,NW,318,5.0,9.0,92,0.00,,,0.00,,2013-02-17 11:42:00,
2013-02-17 06:52:00,18.0,16.0,30.05,NW,320,3.0,7.0,92,0.00,,,0.00,,2013-02-17 11:52:00,
2013-02-17 07:03:00,17.0,15.0,30.06,NW,324,1.0,8.0,92,0.00,,,0.00,,2013-02-17 12:03:00,
2013-02-17 07:11:00,17.0,15.0,30.06,NW,324,1.0,8.0,92,0.00,,,0.00,,2013-02-17 12:11:00,
2013-02-17 07:22:00,17.0,15.0,30.06,NW,313,3.0,9.0,93,0.00,,,0.00,,2013-02-17 12:22:00,
2013-02-17 07:32:00,17.0,15.0,30.06,NW,313,3.0,9.0,93,0.00,,,0.00,,2013-02-17 12:32:00,
2013-02-17 07:42:00,17.0,15.0,30.06,NW,313,3.0,9.0,93,0.00,,,0.00,,2013-02-17 12:42:00,
2013-02-17 07:52:00,17.0,15.0,30.08,NW,323,3.0,7.0,93,0.00,,,0.00,,2013-02-17 12:52:00,
2013-02-17 08:02:00,17.0,15.0,30.08,NNW,339,6.0,10.0,92,0.00,,,0.00,,2013-02-17 13:02:00,
2013-02-17 08:12:00,17.0,15.0,30.08,NNW,339,6.0,10.0,92,0.00,,,0.00,,2013-02-17 13:12:00,
2013-02-17 08:22:00,16.0,14.0,30.09,NW,325,7.0,11.0,91,0.00,,,0.00,,2013-02-17 13:22:00,
2013-02-17 08:32:00,16.0,14.0,30.10,North,5,4.0,9.0,90,0.00,,,0.00,,2013-02-17 13:32:00,
2013-02-17 08:42:00,16.0,14.0,30.10,North,5,4.0,9.0,90,0.00,,,0.00,,2013-02-17 13:42:00,
2013-02-17 08:51:00,16.0,14.0,30.11,NNW,338,2.0,7.0,90,0.00,,,0.00,,2013-02-17 13:51:00,
2013-02-17 09:01:00,16.0,14.0,30.11,NW,308,4.0,9.0,90,0.00,,,0.00,,2013-02-17 14:01:00,
2013-02-17 09:11:00,16.0,14.0,30.11,NW,308,4.0,9.0,90,0.00,,,0.00,,2013-02-17 14:11:00,
2013-02-17 09:22:00,16.0,14.0,30.12,NW,322,5.0,7.0,90,0.00,,,0.00,,2013-02-17 14:22:00,
2013-02-17 09:32:00,16.0,14.0,30.12,NW,315,5.0,9.0,91,0.00,,,0.00,,2013-02-17 14:32:00,
2013-02-17 09:42:00,16.0,14.0,30.12,NW,315,5.0,9.0,91,0.00,,,0.00,,2013-02-17 14:42:00,
2013-02-17 09:52:00,16.0,14.0,30.13,WNW,298,5.0,9.0,90,0.00,,,0.00,,2013-02-17 14:52:00,
2013-02-17 10:02:00,16.0,13.0,30.14,NW,314,5.0,9.0,89,0.00,,,0.00,,2013-02-17 15:02:00,
2013-02-17 10:11:00,16.0,13.0,30.14,NW,314,5.0,9.0,89,0.00,,,0.00,,2013-02-17 15:11:00,
2013-02-17 10:22:00,16.0,13.0,30.14,NW,315,4.0,11.0,89,0.00,,,0.00,,2013-02-17 15:22:00,
2013-02-17 10:32:00,16.0,13.0,30.14,NW,322,6.0,11.0,88,0.00,,,0.00,,2013-02-17 15:32:00,
2013-02-17 10:42:00,16.0,13.0,30.14,NW,322,6.0,11.0,88,0.00,,,0.00,,2013-02-17 15:42:00,
2013-02-17 10:52:00,16.0,13.0,30.15,WNW,302,5.0,12.0,87,0.00,,,0.00,,2013-02-17 15:52:00,
2013-02-17 11:01:00,16.0,13.0,30.16,WNW,297,7.0,13.0,86,0.00,,,0.00,,2013-02-17 16:01:00,
2013-02-17 11:12:00,16.0,13.0,30.16,WNW,297,7.0,13.0,86,0.00,,,0.00,,2013-02-17 16:12:00,
2013-02-17 11:22:00,16.0,12.0,30.17,NW,309,7.0,15.0,84,0.00,,,0.00,,2013-02-17 16:22:00,
2013-02-17 11:32:00,15.0,11.0,30.17,WNW,296,8.0,13.0,85,0.00,,,0.00,,2013-02-17 16:32:00,
2013-02-17 11:42:00,15.0,11.0,30.17,WNW,296,8.0,13.0,85,0.00,,,0.00,,2013-02-17 16:42:00,
2013-02-17 11:51:00,15.0,11.0,30.18,WNW,303,7.0,14.0,83,0.00,,,0.00,,2013-02-17 16:51:00,
2013-02-17 12:02:00,16.0,12.0,30.18,NW,308,5.0,12.0,83,0.00,,,0.00,,2013-02-17 17:02:00,
2013-02-17 12:11:00,16.0,12.0,30.18,NW,308,5.0,12.0,83,0.00,,,0.00,,2013-02-17 17:11:00,
2013-02-17 12:21:00,16.0,11.0,30.18,WNW,291,9.0,12.0,82,0.00,,,0.00,,2013-02-17 17:21:00,
2013-02-17 12:32:00,16.0,11.0,30.18,WNW,290,7.0,13.0,79,0.00,,,0.00,,2013-02-17 17:32:00,
2013-02-17 12:42:00,16.0,11.0,30.18,WNW,290,7.0,13.0,79,0.00,,,0.00,,2013-02-17 17:42:00,
2013-02-17 12:52:00,16.0,10.0,30.18,WNW,294,8.0,14.0,78,0.00,,,0.00,,2013-02-17 17:52:00,
2013-02-17 13:02:00,16.0,10.0,30.18,WNW,290,6.0,14.0,77,0.00,,,0.00,,2013-02-17 18:02:00,
2013-02-17 13:11:00,16.0,10.0,30.18,WNW,290,6.0,14.0,77,0.00,,,0.00,,2013-02-17 18:11:00,
2013-02-17 13:22:00,16.0,9.0,30.18,West,278,9.0,15.0,74,0.00,,,0.00,,2013-02-17 18:22:00,
2013-02-17 13:33:00,17.0,10.0,30.18,West,264,8.0,15.0,74,0.00,,,0.00,,2013-02-17 18:33:00,
2013-02-17 13:42:00,17.0,10.0,30.18,West,264,8.0,15.0,74,0.00,,,0.00,,2013-02-17 18:42:00,
2013-02-17 13:52:00,17.0,9.0,30.18,NW,318,7.0,16.0,70,0.00,,,0.00,,2013-02-17 18:52:00,
2013-02-17 14:02:00,17.0,8.0,30.18,West,262,8.0,15.0,66,0.00,,,0.00,,2013-02-17 19:02:00,
2013-02-17 14:11:00,17.0,8.0,30.18,West,262,8.0,15.0,66,0.00,,,0.00,,2013-02-17 19:11:00,
2013-02-17 14:22:00,17.0,9.0,30.18,West,263,8.0,15.0,69,0.00,,,0.00,,2013-02-17 19:22:00,
2013-02-17 14:32:00,17.0,7.0,30.18,WNW,288,10.0,15.0,65,0.00,,,0.00,,2013-02-17 19:32:00,
2013-02-17 14:42:00,17.0,7.0,30.18,WNW,288,10.0,15.0,65,0.00,,,0.00,,2013-02-17 19:42:00,
2013-02-17 14:52:00,17.0,8.0,30.19,WNW,287,7.0,13.0,68,0.00,,,0.00,,2013-02-17 19:52:00,
2013-02-17 15:02:00,16.0,8.0,30.18,WNW,285,6.0,15.0,70,0.00,,,0.00,,2013-02-17 20:02:00,
2013-02-17 15:11:00,16.0,8.0,30.18,WNW,285,6.0,15.0,70,0.00,,,0.00,,2013-02-17 20:11:00,
2013-02-17 15:22:00,17.0,8.0,30.18,WNW,283,9.0,13.0,66,0.00,,,0.00,,2013-02-17 20:22:00,
2013-02-17 15:32:00,17.0,9.0,30.19,WNW,302,8.0,15.0,70,0.00,,,0.00,,2013-02-17 20:32:00,
2013-02-17 15:42:00,17.0,9.0,30.19,WNW,302,8.0,15.0,70,0.00,,,0.00,,2013-02-17 20:42:00,
2013-02-17 15:52:00,17.0,8.0,30.19,WSW,255,7.0,14.0,68,0.00,,,0.00,,2013-02-17 20:52:00,
2013-02-17 16:02:00,17.0,9.0,30.20,SW,222,6.0,14.0,70,0.00,,,0.00,,2013-02-17 21:02:00,
2013-02-17 16:11:00,17.0,9.0,30.20,SW,222,6.0,14.0,70,0.00,,,0.00,,2013-02-17 21:11:00,
2013-02-17 16:21:00,17.0,9.0,30.19,WNW,300,6.0,16.0,71,0.00,,,0.00,,2013-02-17 21:21:00,
2013-02-17 16:32:00,18.0,10.0,30.20,West,263,8.0,14.0,71,0.00,,,0.00,,2013-02-17 21:32:00,
2013-02-17 16:42:00,18.0,10.0,30.20,West,263,8.0,14.0,71,0.00,,,0.00,,2013-02-17 21:42:00,
2013-02-17 16:52:00,18.0,10.0,30.20,WNW,292,8.0,14.0,71,0.00,,,0.00,,2013-02-17 21:52:00,
2013-02-17 17:01:00,18.0,10.0,30.21,WNW,286,6.0,14.0,71,0.00,,,0.00,,2013-02-17 22:01:00,
2013-02-17 17:12:00,18.0,10.0,30.21,WNW,286,6.0,14.0,71,0.00,,,0.00,,2013-02-17 22:12:00,
2013-02-17 17:22:00,18.0,10.0,30.21,WNW,292,6.0,15.0,71,0.00,,,0.00,,2013-02-17 22:22:00,
2013-02-17 17:32:00,18.0,11.0,30.21,WNW,302,7.0,13.0,72,0.00,,,0.00,,2013-02-17 22:32:00,
2013-02-17 17:42:00,18.0,11.0,30.21,WNW,302,7.0,13.0,72,0.00,,,0.00,,2013-02-17 22:42:00,
2013-02-17 17:52:00,18.0,11.0,30.22,NW,309,6.0,11.0,72,0.00,,,0.00,,2013-02-17 22:52:00,
2013-02-17 18:02:00,18.0,11.0,30.22,WNW,294,4.0,9.0,72,0.00,,,0.00,,2013-02-17 23:02:00,
2013-02-17 18:11:00,18.0,11.0,30.22,WNW,294,4.0,9.0,72,0.00,,,0.00,,2013-02-17 23:11:00,
2013-02-17 18:21:00,17.0,9.0,30.22,NW,315,6.0,11.0,71,0.00,,,0.00,,2013-02-17 23:21:00,
2013-02-17 18:32:00,17.0,10.0,30.23,WNW,302,2.0,6.0,72,0.00,,,0.00,,2013-02-17 23:32:00,
2013-02-17 18:42:00,17.0,10.0,30.23,WNW,302,2.0,6.0,72,0.00,,,0.00,,2013-02-17 23:42:00,
2013-02-17 18:52:00,17.0,9.0,30.24,WNW,292,2.0,8.0,71,0.00,,,0.00,,2013-02-17 23:52:00,
2013-02-17 19:02:00,16.0,8.0,30.23,WNW,298,3.0,6.0,71,0.00,,,0.00,,2013-02-18 00:02:00,
2013-02-17 19:12:00,16.0,8.0,30.23,WNW,298,3.0,6.0,71,0.00,,,0.00,,2013-02-18 00:12:00,
2013-02-17 19:22:00,16.0,8.0,30.24,NW,309,0.0,5.0,70,0.00,,,0.00,,2013-02-18 00:22:00,
2013-02-17 19:32:00,16.0,8.0,30.24,NW,309,0.0,2.0,71,0.00,,,0.00,,2013-02-18 00:32:00,
2013-02-17 19:42:00,16.0,8.0,30.24,NW,309,0.0,2.0,71,0.00,,,0.00,,2013-02-18 00:42:00,
2013-02-17 19:52:00,16.0,9.0,30.24,NW,309,0.0,2.0,72,0.00,,,0.00,,2013-02-18 00:52:00,
2013-02-17 20:01:00,15.0,8.0,30.24,NW,309,0.0,0.0,72,0.00,,,0.00,,2013-02-18 01:01:00,
2013-02-17 20:12:00,15.0,8.0,30.24,NW,309,0.0,0.0,72,0.00,,,0.00,,2013-02-18 01:12:00,
2013-02-17 20:21:00,15.0,8.0,30.25,NW,309,0.0,0.0,74,0.00,,,0.00,,2013-02-18 01:21:00,
2013-02-17 20:32:00,15.0,9.0,30.25,NW,309,0.0,0.0,76,0.00,,,0.00,,2013-02-18 01:32:00,
2013-02-17 20:42:00,15.0,9.0,30.25,NW,309,0.0,0.0,76,0.00,,,0.00,,2013-02-18 01:42:00,
2013-02-17 20:51:00,15.0,9.0,30.25,NW,309,0.0,0.0,77,0.00,,,0.00,,2013-02-18 01:51:00,
2013-02-17 21:02:00,16.0,10.0,30.25,NW,309,0.0,0.0,77,0.00,,,0.00,,2013-02-18 02:02:00,
2013-02-17 21:11:00,16.0,10.0,30.25,NW,309,0.0,0.0,77,0.00,,,0.00,,2013-02-18 02:11:00,
2013-02-17 21:22:00,15.0,9.0,30.25,NW,309,0.0,0.0,77,0.00,,,0.00,,2013-02-18 02:22:00,
2013-02-17 21:32:00,14.0,8.0,30.26,NW,309,0.0,0.0,78,0.00,,,0.00,,2013-02-18 02:32:00,
2013-02-17 21:42:00,14.0,8.0,30.26,NW,309,0.0,0.0,78,0.00,,,0.00,,2013-02-18 02:42:00,
2013-02-17 21:52:00,13.0,8.0,30.26,NW,309,0.0,0.0,79,0.00,,,0.00,,2013-02-18 02:52:00,
2013-02-17 22:02:00,12.0,8.0,30.26,NW,309,0.0,0.0,82,0.00,,,0.00,,2013-02-18 03:02:00,
2013-02-17 22:11:00,12.0,8.0,30.26,NW,309,0.0,0.0,82,0.00,,,0.00,,2013-02-18 03:11:00,
2013-02-17 22:22:00,12.0,8.0,30.27,NW,309,0.0,0.0,82,0.00,,,0.00,,2013-02-18 03:22:00,
2013-02-17 22:32:00,11.0,7.0,30.27,NW,309,0.0,0.0,84,0.00,,,0.00,,2013-02-18 03:32:00,
2013-02-17 22:42:00,11.0,7.0,30.27,NW,309,0.0,0.0,84,0.00,,,0.00,,2013-02-18 03:42:00,
2013-02-17 22:51:00,10.0,6.0,30.28,NW,309,0.0,0.0,84,0.00,,,0.00,,2013-02-18 03:51:00,
2013-02-17 23:01:00,10.0,7.0,30.28,NW,309,0.0,0.0,86,0.00,,,0.00,,2013-02-18 04:01:00,
2013-02-17 23:11:00,10.0,7.0,30.28,NW,309,0.0,0.0,86,0.00,,,0.00,,2013-02-18 04:11:00,
2013-02-17 23:21:00,9.0,6.0,30.28,NW,309,0.0,0.0,86,0.00,,,0.00,,2013-02-18 04:21:00,
2013-02-17 23:32:00,9.0,6.0,30.28,NW,309,0.0,0.0,86,0.00,,,0.00,,2013-02-18 04:32:00,
2013-02-17 23:42:00,9.0,6.0,30.28,NW,309,0.0,0.0,86,0.00,,,0.00,,2013-02-18 04:42:00,
2013-02-17 23:52:00,8.0,5.0,30.28,NW,309,0.0,0.0,87,0.00,,,0.00,,2013-02-18 04:52:00,